Regional Weather Roundup
Issued by NWS

Home | Current Version | Previous Version | Graphics & Text | Print | Product List | Glossary On
Versions: 1 2 3 4 5 6 7 8 9 10 11 12 13 14 15 16 17 18 19 20 21 22 23 24 25 26 27 28 29 30 31 32 33 34 35 36 37 38 39 40 41 42 43 44 45 46 47 48 49 50
000
ASUS45 KTFX 290510
RWRMT
MONTANA REGIONAL WEATHER ROUNDUP
NATIONAL WEATHER SERVICE GREAT FALLS MT
1100 PM MDT FRI APR 28 2017

NOTE: "FAIR" INDICATES FEW OR NO CLOUDS BELOW 12000 FEET WITH NO
SIGNIFICANT WEATHER AND/OR OBSTRUCTIONS TO VISIBILITY.

MTZ001>007-043-290600-
WEST OF THE DIVIDE

CITY           SKY/WX    TMP DP  RH WIND       PRES   REMARKS
KALISPELL      LGT RAIN  41  39  93 SE5       30.20R
MISSOULA       MOCLDY    41  33  73 N7        30.23R
BUTTE          CLOUDY    39  26  59 CALM      30.17R
MULLAN PASS    CLOUDY    29  29 100 N3        30.19S
ANACONDA         N/A     36  27  69 CALM      30.18R
DEER LODGE       N/A     36  28  75 NW3       30.21R
EUREKA           N/A     43  37  81 SE6       30.17S
HAMILTON         N/A     41  28  60 NE3       30.22R
LIBBY            N/A     45  37  76 CALM      30.18S
PLAINS           N/A     43  33  67 NW5       30.21R
$$

MTZ008-052>055-290600-
SOUTHWEST MONTANA

CITY           SKY/WX    TMP DP  RH WIND       PRES   REMARKS
BOZEMAN        CLOUDY    38  36  92 S3        30.18R
DILLON         CLOUDY    37  29  72 E9        30.14R WCI  30
W YELLOWSTONE  CLOUDY    30  23  74 N6        30.13R WCI  24
THREE FORKS      N/A     37  35  92 CALM      30.15R
TWIN BRIDGES     N/A     41  28  60 N13       30.12R
$$

MTZ009-010-012-014-046-048-049-054-290600-
EAST SLOPES AND CENTRAL MONTANA

CITY           SKY/WX    TMP DP  RH WIND       PRES   REMARKS
CUT BANK       CLOUDY    40  32  73 S6        30.15R
GREAT FALLS    CLEAR     34  31  88 S5        30.18R
MALMSTROM AFB  CLEAR     31  31  99 S6        30.19R WCI  26
HELENA         CLEAR     39  33  79 W5        30.18R
AUGUSTA          N/A     36  35  96 CALM      30.16S
BOWMANS CRNR     N/A     35  32  88 S6        30.16R WCI  30
CHOTEAU          N/A     37  36  93 S5        30.19S
FAIRFIELD      MOCLDY    38  33  84 S8        30.16R
POWER            N/A     35  34  96 S6        30.16S WCI  30
RAYNESFORD       N/A     33  31  94 CALM      30.18S
ULM              N/A     35  34  94 E3        30.18R
$$

MTZ011-013-016-021-045-047-050-051-290600-
NORTH CENTRAL MONTANA

CITY           SKY/WX    TMP DP  RH WIND       PRES   REMARKS
HAVRE          CLEAR     32  28  85 S6        30.17R WCI  26
LEWISTOWN      PTCLDY    33  31  92 E5        30.19R
CHINOOK          N/A     37  30  75 CALM      30.18R
DENTON           N/A     35  32  90 MISG      30.16R
FORT BENTON      N/A     41  36  81 MISG      30.19S
GEYSER           N/A     34  30  88 SW8       30.18R WCI  27
GRASS RANGE      N/A     35  33  95 W9        30.16R WCI  27
JUDITH GAP     MOCLDY    33  32  96 S7        30.18R WCI  26
STANFORD         N/A     31  31  98 CALM      30.18R
WINIFRED         N/A     35  33  92 SW5       30.17R
$$

MTZ017>020-022>027-061-062-290600-
NORTHEAST MONTANA

CITY           SKY/WX    TMP DP  RH WIND       PRES   REMARKS
GLASGOW        CLOUDY    44  37  76 NW7       30.17R
JORDAN           N/A     45  35  68 N7        30.17R
SIDNEY         PTCLDY    39  23  52 CALM      30.17R
WOLF POINT     CLOUDY    42  27  55 NW7       30.16R
PLENTYWOOD       N/A     41  34  75 N7        30.14S
POPLAR           N/A     45  25  45 CALM      30.15R
SCOBEY           N/A     37  27  68 CALM      30.13R
$$

MTZ028>42-056>058-290600-
SOUTHCENTRAL AND SOUTHEAST MONTANA

CITY           SKY/WX    TMP DP  RH WIND       PRES   REMARKS
BAKER          MOCLDY    37  28  70 S6        30.19R
BILLINGS       CLOUDY    41  35  79 S3        30.19R
LIVINGSTON     CLOUDY    38  35  89 E3        30.17R
MILES CITY     PTCLDY    44  28  53 W3        30.18R
BIG TIMBER     CLOUDY    37  36  93 N5        30.21R
EKALAKA          N/A     38  23  55 SE6       30.14S
LAUREL           N/A     39  30  70 W1        30.15F
ROUNDUP          N/A     40  34  79 SW3       30.09R
$$

REGIONAL REPORTS...DAKOTAS

CITY           SKY/WX    TMP DP  RH WIND       PRES   REMARKS
WILLISTON      PTCLDY    45  29  53 S5        30.16R
MINOT          CLEAR     41  22  46 SW9       30.18R
DICKINSON      CLOUDY    31  17  56 S8        30.17S WCI  23
BEACH            N/A     34  23  64 SW8       30.21R WCI  27
TIOGA            N/A     37  19  48 S10       30.17S WCI  30
WATFORD CITY     N/A     39  21  48 CALM      30.17R
BISMARCK       CLEAR     38  22  52 CALM      30.21R
GRAND FORKS    CLEAR     37  25  61 CALM      30.18R
FARGO          CLEAR     34  27  75 NW6       30.18R WCI  29
BUFFALO SD       N/A     41  26  55 S5        30.13S
RAPID CITY     CLOUDY    34  24  67 E6        30.19R WCI  29
$$

REGIONAL REPORTS...WYOMING/IDAHO/WASHINGTON

CITY           SKY/WX    TMP DP  RH WIND       PRES   REMARKS
GILLETTE       CLOUDY    30  29  96 W10       30.18S WCI  21
SHERIDAN       CLOUDY    33  31  92 CALM      30.19S
BUFFALO WY     CLEAR     32  20  61 W7        30.19S WCI  26
CODY           CLOUDY    35  29  78 CALM      30.18R
YELLOWSTONE LA   N/A     26  18  71 CALM      30.13R
IDAHO FALLS    CLOUDY    39  28  64 N13       30.09R WCI  31
SALMON         PTCLDY    37  27  65 SE6       30.16R
BOISE          CLEAR     47  30  51 NW13      30.14R
SPOKANE        MOCLDY    50  33  52 S13       30.18R
$$

REGIONAL REPORTS...ALBERTA

CITY           SKY/WX    TMP DP  RH WIND       PRES   REMARKS
EDMONTON       CLEAR     36  27  69 SE3       30.10S
CALGARY        MOCLDY    39  32  75 W5        30.11S
LETHBRIDGE     MOCLDY    37  36  93 SW9       30.14R WCI  31
MEDICINE HAT   PTCLDY    39  27  60 W3        30.15R
MILK RIVER       N/A     41  34  75 W3          N/A
$$

REGIONAL REPORTS...SASKATCHEWAN

CITY           SKY/WX    TMP DP  RH WIND       PRES   REMARKS
SWIFT CURRENT  CLEAR     30  25  80 SW7       30.12S WCI  23
REGINA         LGT RAIN  39  36  87 W9        30.16R
SASKATOON      PTCLDY    34  28  80 S6        30.10S WCI  29
CYPRESS HILLS    N/A     30  23  74 NW2         N/A
VAL MARIE        N/A     34  30  86 SE3         N/A
ASSINIBOIA       N/A     36  32  87 S5          N/A
$$



USA.gov is the U.S. government's official web portal to all federal, state and local government web resources and services.